Location: Newark
(48.4472°N, 1.4892°E)
Time: 11:00:59
(UTC+00:00)

SR - Visible Passes

Search period start: 15 November 2019 00:00
Search period end: 25 November 2019 00:00
Orbit: 574 x 882 km, 66.7° (Epoch: 14 November)

Date Brightness Start Highest point End Pass type
(mag) Time Alt. Az. Time Alt. Az. Time Alt. Az.
15 Nov ? 17:08:19 10° WSW 17:13:16 34° NW 17:18:32 10° NNE visible
15 Nov ? 18:54:04 10° NW 18:57:14 15° NNW 18:59:35 12° N visible
16 Nov ? 18:02:55 10° WNW 18:06:47 18° NNW 18:10:47 10° NNE visible
16 Nov ? 19:48:49 10° NNW 19:50:37 12° N 19:50:37 12° N visible
17 Nov ? 17:11:57 10° W 17:16:28 25° NNW 17:21:12 10° NNE visible
17 Nov ? 18:58:05 10° NW 19:00:46 13° N 19:02:14 12° N visible
18 Nov ? 18:06:59 10° NW 18:10:14 15° NNW 18:13:33 10° NNE visible
18 Nov ? 19:52:02 10° NNW 19:53:15 12° N 19:53:15 12° N visible
19 Nov ? 17:15:50 10° WNW 17:19:48 19° NNW 17:23:53 10° NNE visible
19 Nov ? 19:01:48 10° NNW 19:04:20 13° N 19:04:52 13° N visible
20 Nov ? 18:11:01 10° NW 18:13:45 13° N 18:16:29 10° NNE visible
20 Nov ? 19:54:55 10° NNW 19:55:53 12° N 19:55:53 12° N visible
21 Nov ? 17:19:54 10° NW 17:23:14 15° NNW 17:26:38 10° NNE visible
21 Nov ? 19:05:04 10° NNW 19:07:30 13° N 19:07:30 13° N visible
22 Nov ? 18:14:47 10° NNW 18:17:20 13° N 18:19:07 11° NNE visible
22 Nov ? 19:57:38 10° NNW 19:58:31 13° NNW 19:58:31 13° NNW visible
23 Nov ? 17:23:57 10° NW 17:26:45 13° N 17:29:35 10° NNE visible
23 Nov ? 19:07:59 10° NNW 19:10:09 15° N 19:10:09 15° N visible
24 Nov ? 18:18:06 10° NNW 18:20:54 13° N 18:21:47 13° NNE visible
24 Nov ? 20:00:17 10° NNW 20:01:11 14° NNW 20:01:11 14° NNW visible
